SCP
0 0 0 0 0 0 0 0 0 0 0 0 0 0 0 0 0 0 0 0 0 1 1 1 1 1 1 1 1 1 1 0 0 0 0 0 0 0 0 0 0 0 0 0
0 0 0 0 0 0 0 0 0 0 0 0 0 0 0 0 0 0 0 0 0 0 1 1 1 1 1 1 1 1 0 0 0 0 0 0 0 0 0 0 0 0 0 0
0 0 0 0 0 0 0 0 0 0 0 0 0 0 0 0 0 0 0 0 0 0 1 1 1 1 1 1 1 1 0 0 0 0 0 0 0 0 0 0 0 0 0 0
0 0 0 0 0 0 0 0 0 0 0 0 0 0 0 0 0 0 0 0 0 0 1 1 1 1 1 1 1 1 0 0 0 0 0 0 0 0 0 0 0 0 0 0
0 0 0 0 0 0 0 0 0 0 0 0 0 0 0 0 0 0 0 0 0 0 0 1 1 1 1 1 1 1 0 0 0 0 0 0 0 0 0 0 0 0 0 0
0 0 0 0 0 0 0 0 0 0 0 0 0 0 0 0 0 0 0 0 0 0 0 0 1 1 1 1 1 1 1 0 0 0 0 0 0 0 0 0 0 0 0 0
0 0 0 0 0 0 0 0 0 0 0 0 0 0 0 0 0 0 0 0 0 0 0 0 0 1 1 1 1 1 1 0 0 0 0 0 0 0 0 0 0 0 0 0
0 0 0 0 0 0 0 0 0 0 0 0 0 0 0 0 0 0 0 0 0 0 0 0 0 1 1 1 1 1 1 0 0 0 0 0 0 0 0 0 0 0 0 0
0 0 0 0 0 0 0 0 0 0 0 0 0 0 0 0 0 0 0 0 0 0 0 0 0 0 1 1 1 1 1 0 0 0 0 0 0 0 0 0 0 0 0 0
0 0 0 0 0 0 0 0 0 0 0 0 0 0 0 0 0 0 0 0 0 0 0 0 0 0 1 1 1 1 1 0 0 0 0 0 0 0 0 0 0 0 0 0
0 0 0 0 0 0 0 0 0 0 0 0 0 0 0 0 0 0 0 0 0 0 0 0 0 0 0 1 1 1 1 0 0 0 0 0 0 0 0 0 0 0 0 0
0 0 0 0 0 0 0 0 0 0 0 0 0 0 0 0 0 0 0 0 0 0 0 0 0 0 0 1 1 1 1 0 0 0 0 0 0 0 0 0 0 0 0 0
0 0 0 0 0 0 0 0 0 0 0 0 0 0 0 0 0 0 0 0 0 0 0 0 0 0 0 1 1 1 1 0 0 0 0 0 0 0 0 0 0 0 0 0
0 0 0 0 0 0 0 0 0 0 0 0 0 0 0 0 0 0 0 0 0 0 0 0 0 0 0 1 1 1 1 0 0 0 0 0 0 0 0 0 0 0 0 0
0 0 0 0 0 0 0 0 0 0 0 0 0 0 0 0 0 0 0 0 0 0 0 0 0 0 0 0 1 1 1 1 0 0 0 0 0 0 0 0 0 0 0 0
0 0 0 0 0 0 0 0 0 0 0 0 0 0 0 0 0 0 0 0 0 0 0 0 0 0 0 0 0 1 1 1 0 0 0 0 0 0 0 0 0 0 0 0
0 0 0 0 0 0 0 0 0 0 0 0 0 0 0 0 0 0 0 0 0 0 0 0 0 0 0 0 0 0 1 1 0 0 0 0 0 0 0 0 0 0 0 0
0 0 0 0 0 0 0 0 0 0 0 0 0 0 0 0 0 0 0 0 0 0 0 0 0 0 0 0 0 0 0 0 0 0 0 0 0 0 0 0 0 0 0 0
0 0 0 0 0 0 0 0 0 0 0 0 0 0 0 0 0 0 0 0 0 0 0 0 0 0 0 0 0 0 0 0 0 0 0 0 0 0 0 0 0 0 0 0
0 0 0 0 0 0 0 0 0 0 0 0 0 0 0 0 0 0 0 0 0 0 0 0 0 0 0 0 0 0 0 0 0 0 0 0 0 0 0 0 0 0 0 0
0 0 0 0 0 0 0 0 0 0 0 0 0 0 0 0 0 0 0 0 0 0 0 0 0 0 0 0 0 0 0 0 0 0 0 0 0 0 0 0 0 0 0 0
0 0 0 0 0 0 0 0 0 0 0 0 0 0 0 0 0 0 0 0 0 0 0 0 0 0 0 0 0 0 0 0 0 0 0 0 0 0 0 0 0 0 0 0
0 0 0 0 0 0 0 0 0 0 0 0 0 0 0 0 0 0 0 0 0 0 0 0 0 0 0 0 0 0 0 0 0 0 0 0 0 0 0 0 0 0 0 0
0 0 0 0 0 0 0 0 0 0 0 0 0 0 -0 -0 -0 -0 -0 -0 -0 0 0 0 0 0 0 0 0 0 0 0 0 0 0 0 0 0 0 0 0 0 0 0
0 0 0 0 0 0 0 0 0 0 0 0 -0 -0 -0 -0 -0 -0 -0 -0 -0 0 0 0 0 0 0 0 0 0 0 0 0 0 0 0 0 0 0 0 0 0 0 0
0 0 0 0 0 0 0 0 0 0 0 0 -0 -0 -0 -0 -0 -0 -0 -0 -0 0 0 0 0 0 0 0 0 0 0 0 0 0 0 0 0 0 0 0 0 0 0 0
Wind_Speed
1 3 3 6 6 5 3 3 5 6 3 2 6 10 11 7 6 7 7 7 8 8 6 4 5 5 4 4 4 4 4 3 3 2 2 1 1 1 1 1 1 1 1 1
3 3 6 3 2 2 2 4 5 5 2 2 6 10 10 8 8 8 9 9 9 7 4 4 4 4 5 5 5 5 4 4 3 2 1 1 1 1 1 1 1 1 1 1
5 4 2 2 1 2 4 5 5 5 4 2 3 8 7 7 6 6 7 8 7 8 7 6 6 5 5 5 5 4 4 4 3 2 2 2 2 1 0 0 0 1 1 1
3 3 1 2 3 3 6 4 4 3 1 4 1 6 8 6 5 7 8 7 7 7 6 6 6 6 6 5 4 4 4 4 3 3 3 3 3 2 2 1 1 0 0 0
3 1 2 4 5 4 4 2 1 2 2 3 3 4 10 3 6 8 8 8 7 6 6 6 6 6 5 4 4 4 4 4 4 3 4 3 2 2 1 1 1 1 0 0
3 2 2 3 1 2 1 2 3 2 2 4 6 6 9 6 8 6 6 6 6 6 6 5 5 4 3 3 3 3 4 3 3 3 3 3 3 2 2 2 2 1 1 1
3 3 2 1 1 1 2 3 3 4 2 7 3 5 11 8 7 6 6 6 5 5 5 5 5 5 5 5 4 4 4 4 4 4 3 3 3 4 4 3 3 2 1 2
3 5 4 2 4 3 3 5 5 5 5 6 3 8 9 5 4 4 4 3 3 4 5 6 6 6 6 6 5 5 5 4 4 4 4 3 3 3 2 3 3 3 2 2
5 5 1 2 1 5 3 3 3 3 1 4 7 7 8 3 3 2 2 1 3 4 4 5 5 5 6 6 6 6 5 4 4 4 3 3 3 3 2 2 2 2 2 2
5 4 3 1 1 1 3 4 3 3 3 6 7 6 5 4 5 4 3 4 4 3 2 2 4 5 5 5 4 4 5 5 4 3 3 3 3 3 2 2 2 2 2 2
2 3 3 1 5 6 3 3 3 3 3 4 6 8 5 5 4 5 5 4 4 3 3 3 3 4 4 3 3 4 4 3 3 3 3 2 2 2 2 2 3 3 2 2
3 3 3 6 4 3 5 6 6 5 5 4 5 9 3 3 3 3 4 3 2 2 2 2 2 3 3 4 4 4 4 4 4 3 3 2 2 2 2 2 2 2 3 2
4 4 0 4 3 1 3 4 5 4 3 5 6 10 2 3 3 2 2 2 2 2 2 1 1 2 3 4 3 4 4 4 3 3 3 2 2 2 3 2 2 3 3 2
4 4 7 9 7 4 5 6 5 5 6 7 12 12 8 6 5 5 4 3 2 2 2 2 2 2 3 3 3 4 3 3 3 3 3 3 3 3 3 2 2 2 2 2
4 5 5 7 5 3 7 9 9 11 11 11 12 12 12 8 7 6 5 3 3 3 2 3 3 3 3 3 3 3 3 3 3 3 3 4 3 2 2 2 2 2 2 2
4 4 2 5 4 5 9 13 12 13 12 13 13 16 10 7 4 5 5 5 5 5 4 4 3 3 3 3 3 3 3 3 3 4 4 3 2 2 2 2 2 2 2 2
5 5 3 6 4 3 11 13 13 10 10 10 15 16 6 5 6 7 7 6 6 5 4 4 4 4 4 3 3 4 4 3 3 3 3 2 2 2 2 2 2 2 2 2
7 5 3 2 1 10 10 3 8 10 11 11 10 8 7 8 7 6 4 4 5 5 4 4 3 3 3 2 2 2 2 3 3 3 2 2 2 2 2 2 2 2 2 2
6 7 4 3 5 11 10 5 5 6 10 8 10 10 8 4 4 5 3 3 5 4 4 3 3 2 2 2 2 2 2 2 3 2 2 2 2 2 2 2 2 2 2 2
2 4 5 5 6 10 8 3 2 2 9 5 6 8 6 1 3 6 3 2 2 1 1 1 1 0 0 1 1 2 2 2 2 2 2 2 2 2 3 3 2 1 1 2
4 4 7 7 8 12 7 2 3 5 8 3 4 6 4 5 7 4 2 2 1 1 0 0 0 0 0 0 1 2 2 2 2 1 1 1 1 2 2 2 1 1 1 1
10 8 8 6 8 13 4 5 7 7 3 3 3 3 4 5 4 3 2 1 0 0 0 0 1 1 1 1 1 1 2 1 1 1 1 0 0 1 1 1 0 0 1 0
9 10 8 11 11 4 4 6 5 2 3 4 3 3 3 3 4 3 2 2 1 1 1 1 0 1 1 1 1 1 1 0 1 1 1 1 0 0 0 1 1 0 0 0
5 3 4 7 9 6 6 5 4 3 4 4 4 3 2 3 4 3 2 1 1 0 0 0 0 0 2 2 1 1 1 1 2 2 1 1 1 1 1 0 1 1 1 1
7 6 5 8 8 5 6 7 7 5 4 3 3 3 3 3 3 3 3 2 2 1 1 0 1 1 2 2 2 2 0 2 2 2 1 1 1 1 0 0 0 1 2 2
6 8 9 10 7 6 7 5 5 4 5 4 3 3 3 3 4 3 2 2 1 1 1 0 1 1 2 1 2 2 1 2 3 2 1 1 1 1 0 0 1 2 2 2
Wind_Direction
73 88 200 219 209 208 197 214 253 261 260 236 246 261 266 256 237 236 235 233 232 234 230 206 190 177 165 160 155 159 155 152 138 134 138 141 144 120 72 58 60 69 84 96
55 246 238 226 217 214 226 251 267 283 290 243 264 271 267 246 230 227 226 229 228 228 223 204 192 177 175 172 171 168 167 163 163 165 161 160 159 163 141 73 38 46 61 84
186 240 232 184 228 235 256 230 243 263 313 306 298 288 265 259 235 236 229 225 221 212 209 206 198 190 180 178 180 180 170 165 164 149 124 98 77 61 83 90 5 11 55 66
233 264 220 211 238 212 252 240 234 254 274 279 232 285 277 257 254 244 238 230 224 217 208 204 200 195 191 187 177 170 163 160 157 151 155 160 170 190 216 206 214 270 311 21
238 228 203 229 236 197 233 259 240 255 227 283 251 246 278 273 257 250 239 228 223 216 206 203 202 196 188 175 168 166 161 163 163 165 169 174 191 202 183 173 185 225 284 269
240 249 213 220 253 194 197 28 22 29 76 269 231 210 271 238 230 244 236 229 221 213 208 201 193 174 169 160 159 162 165 173 175 176 177 185 194 186 182 200 209 221 242 256
291 277 258 158 77 352 87 83 16 347 328 253 236 223 251 247 233 231 227 226 222 209 201 195 184 180 178 173 172 174 177 189 190 188 192 197 204 198 200 205 210 212 223 238
210 264 228 195 175 186 199 160 175 215 241 276 274 239 254 260 253 242 224 216 210 204 203 197 189 184 184 181 179 181 189 199 196 194 202 204 204 205 212 215 212 212 221 234
192 243 269 234 205 155 172 202 185 159 264 274 262 271 293 279 284 274 240 214 230 225 213 201 184 178 181 183 187 188 193 200 201 201 201 204 203 208 215 215 211 215 226 233
170 231 267 274 66 250 184 161 119 155 212 262 276 261 250 248 253 263 255 244 246 239 225 196 188 183 183 186 188 186 190 198 201 199 199 204 207 211 210 202 212 221 228 234
163 182 268 239 200 197 168 177 175 180 196 210 272 267 229 220 225 231 239 239 236 226 214 203 197 184 172 168 175 187 194 197 202 202 204 203 213 215 209 212 217 220 224 223
164 148 238 246 247 220 202 196 168 183 238 223 252 269 263 241 251 226 242 245 244 225 217 204 191 173 169 175 184 194 197 201 206 200 194 201 209 210 214 220 224 223 223 225
152 143 320 321 310 254 237 225 201 189 189 209 225 262 297 325 320 296 258 251 251 241 226 206 193 189 187 187 191 195 197 201 197 188 190 198 205 212 222 228 229 224 224 232
139 174 195 214 227 200 233 236 209 190 213 231 235 257 280 294 298 297 279 256 247 241 218 218 223 220 209 200 198 198 201 195 186 186 193 204 214 218 224 231 231 228 225 228
141 207 229 252 263 235 236 240 219 215 222 227 247 252 260 259 258 264 264 266 254 241 243 235 230 230 225 216 207 200 201 194 184 187 199 214 218 215 216 223 230 230 229 232
161 194 212 270 265 254 262 249 234 235 236 244 261 268 264 268 260 263 262 253 246 247 247 242 237 234 232 227 214 206 208 200 185 191 206 210 205 209 218 225 225 227 231 236
176 160 179 254 294 327 262 232 215 222 224 217 241 253 271 277 265 257 254 237 242 250 252 245 239 235 234 229 219 212 207 192 183 196 206 204 201 212 223 227 224 228 232 236
166 165 178 236 7 244 246 212 202 224 243 230 241 258 256 253 264 267 251 235 252 254 251 249 245 240 239 234 222 210 184 172 183 199 208 207 206 222 228 217 225 234 236 237
180 169 170 180 237 269 283 248 193 209 262 234 236 257 273 281 306 285 268 250 245 242 244 242 238 232 226 224 216 176 168 171 181 198 210 217 215 220 218 223 231 235 228 239
155 162 173 185 215 243 250 246 206 168 268 246 221 245 261 262 273 272 285 281 270 267 264 273 277 182 183 258 194 164 176 178 201 221 223 220 215 212 217 228 236 242 242 245
164 187 201 209 232 256 255 235 123 200 252 274 233 240 238 227 240 266 285 296 286 260 266 348 22 90 264 310 125 167 179 206 227 229 222 213 212 218 216 219 227 232 236 256
180 185 198 189 223 249 215 155 194 230 279 261 248 246 242 249 262 264 257 246 263 293 337 38 55 4 3 54 132 179 212 231 195 152 139 151 236 224 177 170 214 201 185 221
201 196 194 203 223 249 192 209 228 233 253 262 262 262 228 246 259 258 251 233 230 236 288 15 92 7 354 4 142 212 256 130 106 108 115 107 46 51 100 145 168 147 158 214
235 204 204 243 255 255 252 254 264 263 257 269 257 246 221 235 241 246 245 240 237 248 266 343 65 352 324 335 346 288 273 123 126 135 133 117 106 70 59 78 148 174 199 222
215 189 213 246 262 275 253 244 255 269 274 273 271 259 236 220 238 235 239 241 233 239 275 259 240 261 289 323 333 327 279 137 140 150 145 126 114 121 83 25 214 230 236 218
204 198 205 233 225 220 247 247 249 249 257 251 253 275 274 234 237 244 246 245 238 235 245 262 284 280 293 315 311 310 231 157 154 160 150 141 136 124 113 49 352 349 334 325